Skip Page Navigation
NASA JPL Caltech
NASA Logo - Jet Propulsion Laboratory + View the NASA Portal
+ Center for Near-Earth Object Studies
JPL Home Earth Solar System Stars & Galaxies Technology
JPL Solar System Dynamics
BODIES ORBITS EPHEMERIDES TOOLS PHYSICAL DATA DISCOVERY FAQ SITE MAP
JPL Small-Body Database Browser
Search: [ help ]  
357583 (2004 TV301)
Classification: Main-belt Asteroid          SPK-ID: 2357583
Ephemeris | Orbit Diagram | Orbital Elements | Mission Design | Physical Parameters | Discovery Circumstances ]

[ show orbit diagram ]
Orbital Elements at Epoch 2459000.5 (2020-May-31.0) TDB
Reference: JPL 11 (heliocentric ecliptic J2000)
 Element Value Uncertainty (1-sigma)   Units 
e .1312983480838437 9.2858e-08  
a 2.328864625172471 1.5655e-08 au
q 2.023088546976426 2.2164e-07 au
i 6.173409697578447 4.2823e-06 deg
node 245.3093680754992 7.4667e-05 deg
peri 114.5996019917107 7.644e-05 deg
M 166.6788888645743 1.8085e-05 deg
tp 2458399.474513134599
(2018-Oct-07.97451313)
6.3676e-05 TDB
period 1298.119856362513
3.55
1.3089e-05
3.584e-08
d
yr
n .2773241609667408 2.7964e-09 deg/d
Q 2.634640703368516 1.7711e-08 au
  Orbit Determination Parameters
   # obs. used (total)      281  
   data-arc span      5596 days (15.32 yr)  
   first obs. used      2004-10-08  
   last obs. used      2020-02-03  
   planetary ephem.      DE431  
   SB-pert. ephem.      SB431-N16  
   condition code      0  
   norm. resid. RMS      .52208  
   source      ORB  
   producer      Otto Matic  
   solution date      2020-Feb-26 00:31:23  

Additional Information
 Earth MOID = 1.02956 au 
 Jupiter MOID = 2.83507 au 
 T_jup = 3.553 
[ show covariance matrix ]

Ephemeris | Orbit Diagram | Orbital Elements | Mission Design | Physical Parameters | Discovery Circumstances ]

Physical Parameter Table
Parameter Symbol Value Units Sigma Reference Notes
absolute magnitude H 17.0   n/a MPO471687  

357583 (2004 TV301)          Discovered 2004-Oct-08 by LONEOS at Anderson Mesa
Reference: 20130327/Numbers.arcLast Updated: 2013-03-29
Ephemeris | Orbit Diagram | Orbital Elements | Mission Design | Physical Parameters | Discovery Circumstances ]
ABOUT SSD CREDITS/AWARDS PRIVACY/COPYRIGHT GLOSSARY LINKS
FirstGov 2020-Aug-08 15:53 UT
(server date/time)  
NASA Home Page
Site Manager:   Ryan S. Park
Webmaster  Alan B. Chamberlin